Eelde, Netherlands

4:07 AM CEST on April 25, 2018 (GMT +0200)
Eelde

Weather History for EHGG - May, 2013

Change the Weather History Date:

Wednesday, May 8, 2013

  Actual Average Record
Temperature  
Mean Temperature 63 °F -  
Max Temperature 72 °F 63 °F 80 °F (2011)
Min Temperature 54 °F 45 °F 37 °F (1997)
Degree Days  
Heating Degree Days 2    
Growing Degree Days 13 (Base 50)    
Moisture  
Dew Point 55 °F    
Average Humidity 83    
Maximum Humidity 100    
Minimum Humidity 45    
Precipitation  
Precipitation 0.12 in 0.08 in - ()
Sea Level Pressure  
Sea Level Pressure 29.81 in    
Wind  
Wind Speed 8 mph ()    
Max Wind Speed 21 mph    
Max Gust Speed -    
Visibility 4.9 miles    
Events Rain , Thunderstorm    
Averages and records for this station are not official NWS values.
T = Trace of Precipitation, MM = Missing Value Source: Averaged Metar Reports

Daily Weather History Graph

Daily Weather History Graph

Search for Another Location

Airport or City:

Astronomy

May. 08, 2013 Rise Set
Actual Time 5:46 AM CEST 9:14 PM CEST
Civil Twilight 5:04 AM CEST 9:56 PM CEST
Nautical Twilight 4:07 AM CEST 10:54 PM CEST
Astronomical Twilight 2:44 AM CEST 12:21 AM CEST
Moon 4:59 AM CEST (5/8) 7:48 PM CEST (5/8)
Length of Visible Light 16h 52m
Length of Day
15h 27m
Waning Crescent, 2% of the Moon is Illuminated
May 8
Waning Crescent
May 10
New
May 18
First Quarter
May 25
Full
May 31
Last Quarter

Hourly Weather History & Observations

Time (CEST) Temp. Dew Point Humidity Pressure Visibility Wind Dir Wind Speed Gust Speed Precip Events Conditions
12:25 AM 57.2 °F 53.6 °F 88% 29.92 in 6.2 mi ENE 13.8 mph - N/A   Overcast
12:55 AM 57.2 °F 53.6 °F 88% 29.92 in 6.2 mi ENE 10.4 mph - N/A   Overcast
1:25 AM 55.4 °F 51.8 °F 88% 29.92 in 6.2 mi ENE 8.1 mph - N/A   Scattered Clouds
1:55 AM 55.4 °F 53.6 °F 94% 29.92 in 6.2 mi ENE 8.1 mph - N/A   Overcast
2:00 AM 55 °F 53 °F 89% 29.91 in 6 mi ENE 6.7 mph - -   Partly Cloudy
2:25 AM 55.4 °F 51.8 °F 88% 29.89 in 5.6 mi ENE 5.8 mph - N/A   Mostly Cloudy
2:55 AM 55.4 °F 53.6 °F 94% 29.89 in 5.6 mi East 4.6 mph - N/A   Overcast
3:25 AM 55.4 °F 53.6 °F 94% 29.86 in 5.6 mi East 4.6 mph - N/A   Overcast
3:55 AM 55.4 °F 53.6 °F 94% 29.86 in 5.0 mi ENE 4.6 mph - N/A   Overcast
4:25 AM 55.4 °F 53.6 °F 94% 29.86 in 5.0 mi East 4.6 mph - N/A   Overcast
4:55 AM 55.4 °F 53.6 °F 94% 29.86 in 5.0 mi East 4.6 mph - N/A   Overcast
5:00 AM 56 °F 53 °F 86% 29.86 in 4 mi East 4.5 mph - -   Mist
5:25 AM 55.4 °F 53.6 °F 94% 29.83 in 5.0 mi ESE 4.6 mph - N/A   Overcast
5:55 AM 55.4 °F 53.6 °F 94% 29.83 in 4.3 mi ESE 4.6 mph - N/A   Overcast
6:25 AM 55.4 °F 53.6 °F 94% 29.83 in 4.3 mi ESE 4.6 mph - N/A   Mostly Cloudy
6:55 AM 55.4 °F 53.6 °F 94% 29.83 in 4.3 mi SE 4.6 mph - N/A   Overcast
7:25 AM 57.2 °F 53.6 °F 88% 29.83 in 3.7 mi SSE 5.8 mph - N/A   Mostly Cloudy
7:55 AM 57.2 °F 55.4 °F 94% 29.80 in - South 6.9 mph - N/A   Overcast
8:00 AM 58 °F 55 °F 85% 29.83 in 3 mi South 6.7 mph - -   Mist
8:25 AM 59.0 °F 55.4 °F 88% 29.80 in - South 8.1 mph - N/A   Mostly Cloudy
8:55 AM 59.0 °F 53.6 °F 82% 29.80 in 3.1 mi South 10.4 mph - N/A   Overcast
9:25 AM 59.0 °F 53.6 °F 82% 29.80 in 3.7 mi South 10.4 mph - N/A   Overcast
9:55 AM 60.8 °F 53.6 °F 77% 29.80 in 4.3 mi South 10.4 mph - N/A   Overcast
10:25 AM 62.6 °F 55.4 °F 77% 29.80 in 4.3 mi SSE 10.4 mph - N/A   Mostly Cloudy
10:55 AM 60.8 °F 53.6 °F 77% 29.80 in 3.7 mi South 10.4 mph - N/A   Overcast
11:00 AM 60 °F 54 °F 74% 29.82 in 4 mi South 11.2 mph - -   Light Haze
11:25 AM 60.8 °F 53.6 °F 77% 29.80 in 4.3 mi South 12.7 mph - N/A   Overcast
11:55 AM 62.6 °F 55.4 °F 77% 29.80 in 4.3 mi South 10.4 mph - N/A   Overcast
12:25 PM 64.4 °F 55.4 °F 73% 29.80 in 5.6 mi South 11.5 mph - N/A   Overcast
12:55 PM 64.4 °F 53.6 °F 68% 29.80 in 6.2 mi South 13.8 mph - N/A   Mostly Cloudy
1:25 PM 66.2 °F 55.4 °F 68% 29.77 in 6.2 mi SSW 16.1 mph - N/A   Scattered Clouds
1:55 PM 66.2 °F 55.4 °F 68% 29.77 in 6.2 mi South 13.8 mph - N/A   Mostly Cloudy
2:00 PM 68 °F 55 °F 54% 29.79 in 7 mi South 13.4 mph - -   Partly Cloudy
2:25 PM 66.2 °F 53.6 °F 64% 29.77 in 6.2 mi South 12.7 mph - N/A   Mostly Cloudy
2:55 PM 68.0 °F 53.6 °F 60% 29.77 in 6.2 mi South 12.7 mph - N/A   Unknown
3:25 PM 69.8 °F 55.4 °F 60% 29.77 in 6.2 mi South 11.5 mph - N/A   Partly Cloudy
3:55 PM 69.8 °F 55.4 °F 60% 29.74 in 6.2 mi South 8.1 mph - N/A   Scattered Clouds
4:25 PM 71.6 °F 53.6 °F 53% 29.74 in 6.2 mi SSW 12.7 mph - N/A   Partly Cloudy
4:55 PM 69.8 °F 51.8 °F 53% 29.74 in 6.2 mi South 10.4 mph - N/A   Mostly Cloudy
5:00 PM 69 °F 53 °F 45% 29.75 in 9 mi South 11.2 mph - -   Scattered Clouds
5:25 PM 59.0 °F 55.4 °F 88% 29.77 in 3.7 mi WSW 20.7 mph - N/A Rain , Thunderstorm Thunderstorms and Rain
5:55 PM 59.0 °F 57.2 °F 94% 29.77 in 5.6 mi West 5.8 mph - N/A   Light Drizzle
6:25 PM 60.8 °F 57.2 °F 88% 29.77 in 5.6 mi SE 3.5 mph - N/A Rain Light Rain
6:55 PM 60.8 °F 59.0 °F 94% 29.77 in 3.7 mi ESE 3.5 mph - N/A   Unknown
7:25 PM 60.8 °F 59.0 °F 94% 29.74 in 3.7 mi ESE 4.6 mph - N/A   Partly Cloudy
7:55 PM 60.8 °F 59.0 °F 94% 29.77 in 4.3 mi SE 4.6 mph - N/A   Unknown
8:00 PM 61 °F 59 °F 90% 29.77 in 4 mi SE 4.5 mph - -   Mist
8:25 PM 62.6 °F 57.2 °F 82% 29.77 in 6.2 mi South 6.9 mph - N/A   Overcast
8:55 PM 60.8 °F 57.2 °F 88% 29.77 in 6.2 mi South 6.9 mph - N/A Rain Light Rain
9:25 PM 59.0 °F 57.2 °F 94% 29.77 in 3.1 mi SSW 8.1 mph - N/A Rain Heavy Rain Showers
9:55 PM 59.0 °F 57.2 °F 94% 29.77 in 5.0 mi South 5.8 mph - N/A Rain Light Rain
10:25 PM 57.2 °F 57.2 °F 100% 29.77 in 3.7 mi South 3.5 mph - N/A Rain Heavy Drizzle
10:55 PM 57.2 °F 57.2 °F 100% 29.77 in 3.7 mi SSE 3.5 mph - N/A   Unknown
11:00 PM 57 °F 56 °F 97% 29.80 in 4 mi SSE 4.5 mph - - Rain Rain
11:25 PM 57.2 °F 57.2 °F 100% 29.80 in 2.5 mi SE 3.5 mph - N/A   Mostly Cloudy
11:55 PM 57.2 °F 57.2 °F 100% 29.77 in 1.7 mi SE 2.3 mph - N/A   Overcast